QPF
0.00 0.00 0.00 0.00 0.00 0.00 0.00 0.00 0.00 0.00 0.00 0.00 0.00 0.00 0.00 0.00 0.00 0.00 0.00 0.00 0.00 0.00 0.00 0.00 0.00 0.00 0.00 0.00 0.01 0.01 0.02 0.04 0.06 0.07 0.08 0.10 0.11 0.09 0.06 0.04 0.04 0.05 0.05 0.06
0.00 0.00 0.00 0.00 0.00 0.00 0.00 0.00 0.00 0.00 0.00 0.00 0.00 0.00 0.00 0.00 0.00 0.00 0.00 0.00 0.00 0.00 0.00 0.00 0.00 0.00 0.00 0.00 0.01 0.02 0.02 0.03 0.04 0.05 0.06 0.08 0.09 0.09 0.09 0.08 0.08 0.07 0.06 0.05
0.00 0.00 0.00 0.00 0.00 0.00 0.00 0.00 0.00 0.00 0.00 0.00 0.00 0.01 0.00 0.00 0.00 0.00 0.00 0.00 0.00 0.00 0.00 0.00 0.00 0.00 0.00 0.00 0.01 0.02 0.03 0.03 0.04 0.05 0.05 0.07 0.08 0.08 0.12 0.10 0.09 0.07 0.06 0.06
0.00 0.00 0.00 0.00 0.00 0.00 0.00 0.00 0.00 0.00 0.00 0.00 0.00 0.01 0.01 0.00 0.00 0.00 0.00 0.00 0.00 0.00 0.00 0.00 0.00 0.00 0.00 0.00 0.00 0.01 0.02 0.02 0.03 0.03 0.05 0.08 0.09 0.11 0.12 0.11 0.10 0.09 0.09 0.07
0.00 0.00 0.00 0.00 0.00 0.00 0.00 0.00 0.00 0.00 0.00 0.00 0.00 0.00 0.00 0.00 0.00 0.00 0.00 0.00 0.00 0.00 0.00 0.00 0.00 0.00 0.00 0.00 0.00 0.01 0.02 0.03 0.03 0.03 0.03 0.05 0.07 0.10 0.09 0.09 0.10 0.10 0.10 0.08
0.00 0.00 0.00 0.00 0.00 0.00 0.00 0.00 0.00 0.00 0.00 0.00 0.00 0.00 0.00 0.00 0.02 0.01 0.01 0.00 0.00 0.00 0.00 0.00 0.00 0.00 0.00 0.00 0.00 0.01 0.02 0.02 0.02 0.02 0.02 0.05 0.08 0.09 0.09 0.11 0.11 0.08 0.08 0.08
0.00 0.00 0.00 0.00 0.00 0.00 0.00 0.00 0.00 0.00 0.00 0.00 0.00 0.00 0.00 0.00 0.01 0.00 0.00 0.00 0.00 0.00 0.00 0.00 0.00 0.00 0.00 0.00 0.00 0.00 0.01 0.02 0.02 0.03 0.03 0.05 0.08 0.09 0.08 0.08 0.10 0.09 0.08 0.08
0.00 0.00 0.00 0.00 0.00 0.00 0.00 0.00 0.00 0.00 0.00 0.00 0.00 0.00 0.00 0.00 0.00 0.00 0.00 0.00 0.00 0.00 0.00 0.00 0.00 0.00 0.00 0.00 0.00 0.00 0.01 0.01 0.02 0.03 0.04 0.07 0.08 0.07 0.07 0.08 0.07 0.09 0.10 0.09
0.00 0.00 0.00 0.00 0.00 0.00 0.00 0.00 0.00 0.00 0.00 0.00 0.00 0.00 0.00 0.00 0.00 0.00 0.00 0.00 0.00 0.00 0.00 0.00 0.00 0.00 0.00 0.00 0.00 0.00 0.00 0.01 0.01 0.02 0.04 0.04 0.05 0.05 0.05 0.06 0.06 0.06 0.07 0.08
0.00 0.00 0.00 0.00 0.00 0.00 0.00 0.00 0.00 0.00 0.00 0.00 0.00 0.00 0.00 0.00 0.00 0.00 0.00 0.00 0.00 0.00 0.01 0.00 0.00 0.00 0.00 0.00 0.00 0.00 0.00 0.01 0.01 0.02 0.02 0.02 0.03 0.03 0.03 0.04 0.04 0.04 0.04 0.04
0.00 0.00 0.00 0.00 0.00 0.00 0.00 0.00 0.00 0.00 0.00 0.00 0.00 0.00 0.01 0.00 0.00 0.00 0.00 0.00 0.00 0.01 0.03 0.01 0.00 0.00 0.00 0.00 0.00 0.00 0.01 0.01 0.01 0.02 0.02 0.02 0.02 0.02 0.02 0.03 0.03 0.03 0.04 0.04
0.00 0.00 0.00 0.00 0.00 0.00 0.00 0.00 0.00 0.00 0.00 0.00 0.00 0.00 0.00 0.00 0.00 0.00 0.00 0.00 0.00 0.00 0.02 0.04 0.02 0.01 0.00 0.00 0.00 0.00 0.00 0.00 0.01 0.01 0.01 0.02 0.01 0.01 0.02 0.02 0.03 0.03 0.05 0.05
0.00 0.00 0.00 0.00 0.00 0.00 0.00 0.00 0.00 0.00 0.00 0.00 0.00 0.00 0.00 0.00 0.00 0.00 0.00 0.00 0.01 0.00 0.00 0.01 0.02 0.01 0.00 0.00 0.00 0.00 0.00 0.00 0.00 0.00 0.00 0.01 0.01 0.01 0.02 0.03 0.03 0.05 0.06 0.06
0.00 0.00 0.00 0.00 0.00 0.00 0.00 0.00 0.00 0.00 0.00 0.00 0.00 0.00 0.00 0.00 0.00 0.00 0.00 0.00 0.00 0.00 0.00 0.00 0.00 0.00 0.00 0.00 0.00 0.00 0.00 0.00 0.00 0.00 0.00 0.00 0.01 0.01 0.02 0.02 0.03 0.03 0.04 0.05
0.00 0.00 0.00 0.00 0.00 0.00 0.00 0.00 0.00 0.00 0.00 0.00 0.00 0.00 0.00 0.00 0.00 0.00 0.00 0.00 0.00 0.00 0.00 0.00 0.00 0.00 0.00 0.00 0.00 0.00 0.00 0.00 0.00 0.00 0.00 0.00 0.01 0.01 0.02 0.02 0.03 0.03 0.04 0.04
0.00 0.00 0.00 0.00 0.00 0.00 0.00 0.00 0.00 0.00 0.00 0.00 0.00 0.00 0.00 0.00 0.00 0.00 0.00 0.00 0.00 0.00 0.00 0.00 0.00 0.00 0.00 0.00 0.00 0.00 0.00 0.00 0.00 0.00 0.00 0.01 0.01 0.01 0.02 0.02 0.03 0.04 0.04 0.06
0.00 0.00 0.00 0.00 0.00 0.00 0.00 0.00 0.00 0.00 0.00 0.00 0.00 0.00 0.00 0.00 0.00 0.01 0.02 0.01 0.00 0.00 0.00 0.00 0.00 0.00 0.00 0.00 0.00 0.00 0.00 0.01 0.01 0.01 0.01 0.01 0.01 0.02 0.03 0.04 0.05 0.06 0.06 0.07
0.00 0.00 0.00 0.00 0.00 0.00 0.00 0.00 0.00 0.00 0.00 0.00 0.00 0.00 0.00 0.00 0.00 0.01 0.02 0.01 0.00 0.00 0.00 0.00 0.00 0.01 0.00 0.00 0.01 0.00 0.01 0.02 0.03 0.02 0.02 0.03 0.03 0.05 0.05 0.05 0.06 0.07 0.06 0.05
0.00 0.00 0.00 0.00 0.00 0.00 0.00 0.00 0.00 0.00 0.00 0.00 0.00 0.00 0.00 0.00 0.00 0.01 0.03 0.02 0.00 0.00 0.00 0.00 0.00 0.01 0.01 0.01 0.01 0.01 0.02 0.04 0.04 0.04 0.04 0.05 0.05 0.05 0.06 0.05 0.05 0.05 0.04 0.03
0.00 0.00 0.00 0.00 0.00 0.00 0.00 0.00 0.00 0.00 0.00 0.00 0.00 0.00 0.00 0.00 0.00 0.01 0.00 0.00 0.01 0.01 0.00 0.00 0.00 0.01 0.01 0.01 0.02 0.03 0.04 0.05 0.06 0.07 0.08 0.09 0.11 0.11 0.08 0.05 0.05 0.04 0.04 0.03
0.00 0.00 0.00 0.00 0.00 0.00 0.00 0.00 0.00 0.00 0.00 0.00 0.00 0.00 0.00 0.00 0.00 0.00 0.00 0.01 0.02 0.02 0.00 0.00 0.00 0.01 0.01 0.01 0.02 0.04 0.06 0.08 0.09 0.09 0.10 0.10 0.09 0.08 0.07 0.07 0.07 0.06 0.05 0.04
0.01 0.00 0.00 0.00 0.00 0.01 0.00 0.00 0.01 0.01 0.00 0.00 0.00 0.00 0.00 0.00 0.00 0.00 0.00 0.00 0.01 0.00 0.00 0.00 0.00 0.00 0.01 0.02 0.04 0.05 0.06 0.08 0.09 0.08 0.07 0.07 0.05 0.05 0.06 0.08 0.08 0.07 0.05 0.04
0.02 0.02 0.01 0.01 0.02 0.01 0.01 0.01 0.00 0.00 0.00 0.00 0.00 0.00 0.01 0.00 0.00 0.01 0.00 0.00 0.00 0.00 0.00 0.00 0.01 0.02 0.03 0.04 0.05 0.06 0.07 0.08 0.06 0.05 0.04 0.04 0.04 0.04 0.04 0.05 0.06 0.05 0.05 0.05
0.01 0.01 0.01 0.02 0.01 0.01 0.03 0.02 0.01 0.01 0.01 0.00 0.01 0.01 0.02 0.02 0.01 0.00 0.00 0.00 0.00 0.00 0.01 0.01 0.02 0.02 0.04 0.05 0.06 0.07 0.08 0.06 0.04 0.04 0.04 0.04 0.04 0.04 0.04 0.04 0.04 0.03 0.04 0.04
0.03 0.01 0.02 0.03 0.02 0.03 0.04 0.03 0.02 0.02 0.01 0.01 0.01 0.02 0.03 0.03 0.02 0.02 0.03 0.02 0.02 0.01 0.02 0.02 0.03 0.04 0.04 0.06 0.08 0.10 0.10 0.09 0.08 0.07 0.06 0.05 0.03 0.03 0.03 0.03 0.02 0.02 0.02 0.03
0.06 0.05 0.04 0.04 0.03 0.04 0.04 0.04 0.02 0.03 0.03 0.03 0.03 0.04 0.04 0.04 0.03 0.03 0.04 0.03 0.02 0.02 0.03 0.03 0.03 0.04 0.04 0.05 0.07 0.07 0.08 0.10 0.11 0.09 0.06 0.04 0.02 0.02 0.02 0.01 0.02 0.02 0.02 0.03
MSLP
1006.52 1007.07 1007.46 1007.71 1007.88 1007.99 1008.10 1008.22 1008.33 1008.42 1008.44 1008.35 1008.14 1007.81 1007.42 1007.03 1006.71 1006.54 1006.55 1006.77 1007.18 1007.74 1008.39 1009.07 1009.73 1010.34 1010.88 1011.38 1011.85 1012.30 1012.76 1013.23 1013.70 1014.16 1014.57 1014.92 1015.19 1015.39 1015.53 1015.63 1015.71 1015.80 1015.92 1016.07
1007.26 1007.61 1007.80 1007.88 1007.91 1007.96 1008.07 1008.25 1008.48 1008.68 1008.80 1008.76 1008.54 1008.13 1007.60 1007.02 1006.50 1006.14 1006.02 1006.16 1006.56 1007.17 1007.93 1008.74 1009.53 1010.24 1010.86 1011.40 1011.87 1012.31 1012.76 1013.23 1013.73 1014.23 1014.71 1015.13 1015.46 1015.70 1015.84 1015.91 1015.93 1015.93 1015.96 1016.02
1007.76 1007.90 1007.88 1007.80 1007.73 1007.76 1007.92 1008.22 1008.60 1008.96 1009.21 1009.25 1009.04 1008.57 1007.91 1007.16 1006.46 1005.93 1005.67 1005.74 1006.13 1006.80 1007.65 1008.57 1009.47 1010.27 1010.95 1011.50 1011.95 1012.37 1012.78 1013.24 1013.74 1014.27 1014.80 1015.28 1015.67 1015.94 1016.10 1016.14 1016.12 1016.06 1016.00 1016.00
1008.00 1007.94 1007.76 1007.56 1007.44 1007.50 1007.76 1008.21 1008.77 1009.31 1009.71 1009.84 1009.65 1009.14 1008.37 1007.47 1006.60 1005.92 1005.55 1005.55 1005.93 1006.64 1007.56 1008.57 1009.55 1010.41 1011.12 1011.66 1012.08 1012.44 1012.80 1013.20 1013.68 1014.22 1014.77 1015.30 1015.74 1016.05 1016.23 1016.28 1016.23 1016.13 1016.04 1015.99
1008.01 1007.80 1007.51 1007.25 1007.14 1007.27 1007.67 1008.29 1009.05 1009.77 1010.31 1010.53 1010.37 1009.81 1008.95 1007.92 1006.91 1006.10 1005.62 1005.56 1005.93 1006.65 1007.62 1008.70 1009.73 1010.62 1011.32 1011.83 1012.19 1012.48 1012.76 1013.10 1013.53 1014.05 1014.61 1015.16 1015.64 1016.00 1016.20 1016.27 1016.24 1016.13 1016.03 1015.96
1007.85 1007.55 1007.20 1006.94 1006.89 1007.13 1007.69 1008.49 1009.42 1010.31 1010.96 1011.26 1011.11 1010.52 1009.58 1008.44 1007.31 1006.39 1005.83 1005.72 1006.06 1006.79 1007.78 1008.88 1009.93 1010.83 1011.51 1011.97 1012.26 1012.45 1012.65 1012.91 1013.28 1013.76 1014.31 1014.87 1015.38 1015.77 1016.02 1016.12 1016.11 1016.03 1015.93 1015.88
1007.57 1007.24 1006.90 1006.70 1006.75 1007.12 1007.82 1008.79 1009.86 1010.86 1011.59 1011.93 1011.77 1011.15 1010.14 1008.92 1007.71 1006.71 1006.08 1005.92 1006.23 1006.95 1007.94 1009.04 1010.09 1010.97 1011.61 1012.02 1012.24 1012.36 1012.47 1012.65 1012.96 1013.39 1013.92 1014.47 1014.99 1015.41 1015.70 1015.84 1015.86 1015.82 1015.75 1015.71
1007.23 1006.92 1006.64 1006.53 1006.70 1007.20 1008.03 1009.10 1010.26 1011.31 1012.08 1012.41 1012.24 1011.58 1010.53 1009.26 1008.01 1006.96 1006.30 1006.10 1006.39 1007.08 1008.04 1009.12 1010.14 1010.99 1011.59 1011.95 1012.12 1012.18 1012.23 1012.36 1012.61 1013.00 1013.49 1014.03 1014.55 1014.98 1015.29 1015.46 1015.52 1015.50 1015.47 1015.46
1006.85 1006.60 1006.42 1006.43 1006.71 1007.31 1008.22 1009.34 1010.51 1011.56 1012.30 1012.60 1012.40 1011.71 1010.64 1009.38 1008.12 1007.08 1006.41 1006.20 1006.46 1007.12 1008.05 1009.08 1010.05 1010.86 1011.43 1011.76 1011.89 1011.92 1011.95 1012.04 1012.26 1012.62 1013.08 1013.60 1014.11 1014.54 1014.85 1015.03 1015.11 1015.12 1015.10 1015.12
1006.47 1006.32 1006.25 1006.36 1006.73 1007.39 1008.32 1009.42 1010.54 1011.52 1012.18 1012.42 1012.18 1011.49 1010.45 1009.23 1008.03 1007.04 1006.40 1006.20 1006.45 1007.07 1007.94 1008.90 1009.82 1010.58 1011.11 1011.43 1011.56 1011.60 1011.63 1011.73 1011.94 1012.29 1012.73 1013.22 1013.71 1014.12 1014.41 1014.59 1014.68 1014.69 1014.69 1014.71
1006.15 1006.09 1006.12 1006.32 1006.74 1007.42 1008.30 1009.31 1010.31 1011.15 1011.70 1011.86 1011.59 1010.92 1009.95 1008.82 1007.74 1006.85 1006.29 1006.13 1006.37 1006.94 1007.74 1008.62 1009.47 1010.16 1010.67 1010.97 1011.13 1011.20 1011.27 1011.40 1011.64 1011.99 1012.43 1012.91 1013.36 1013.74 1014.02 1014.18 1014.25 1014.26 1014.25 1014.28
1005.93 1005.96 1006.07 1006.33 1006.77 1007.39 1008.17 1009.02 1009.85 1010.52 1010.93 1011.00 1010.70 1010.08 1009.22 1008.24 1007.32 1006.58 1006.13 1006.03 1006.26 1006.79 1007.50 1008.29 1009.03 1009.65 1010.11 1010.41 1010.59 1010.71 1010.84 1011.03 1011.32 1011.70 1012.15 1012.61 1013.05 1013.41 1013.66 1013.80 1013.85 1013.85 1013.84 1013.85
1005.89 1006.00 1006.17 1006.45 1006.85 1007.37 1007.99 1008.64 1009.24 1009.71 1009.95 1009.93 1009.63 1009.08 1008.35 1007.57 1006.84 1006.28 1005.97 1005.94 1006.19 1006.66 1007.27 1007.94 1008.56 1009.08 1009.49 1009.77 1009.97 1010.14 1010.33 1010.59 1010.94 1011.36 1011.83 1012.30 1012.73 1013.08 1013.31 1013.44 1013.48 1013.48 1013.46 1013.46
1006.10 1006.26 1006.46 1006.72 1007.04 1007.42 1007.84 1008.25 1008.61 1008.84 1008.92 1008.80 1008.49 1008.03 1007.47 1006.89 1006.38 1006.02 1005.86 1005.92 1006.18 1006.59 1007.09 1007.62 1008.10 1008.51 1008.83 1009.08 1009.28 1009.48 1009.74 1010.06 1010.47 1010.94 1011.44 1011.94 1012.38 1012.72 1012.96 1013.10 1013.14 1013.14 1013.13 1013.14
1006.59 1006.78 1006.98 1007.18 1007.39 1007.60 1007.79 1007.94 1008.03 1008.03 1007.92 1007.71 1007.40 1007.03 1006.63 1006.26 1005.99 1005.83 1005.83 1005.97 1006.24 1006.59 1006.99 1007.37 1007.71 1007.99 1008.20 1008.39 1008.57 1008.79 1009.08 1009.46 1009.91 1010.43 1010.97 1011.49 1011.95 1012.32 1012.59 1012.75 1012.82 1012.85 1012.86 1012.88
1007.33 1007.51 1007.67 1007.80 1007.88 1007.90 1007.85 1007.73 1007.56 1007.32 1007.04 1006.74 1006.42 1006.13 1005.89 1005.73 1005.67 1005.71 1005.86 1006.09 1006.38 1006.68 1006.98 1007.22 1007.42 1007.56 1007.67 1007.78 1007.92 1008.13 1008.43 1008.83 1009.31 1009.86 1010.43 1010.98 1011.47 1011.87 1012.18 1012.38 1012.51 1012.58 1012.63 1012.67
1008.20 1008.35 1008.45 1008.48 1008.42 1008.24 1007.96 1007.60 1007.17 1006.73 1006.29 1005.90 1005.59 1005.37 1005.27 1005.29 1005.43 1005.65 1005.95 1006.27 1006.58 1006.86 1007.07 1007.20 1007.27 1007.29 1007.29 1007.32 1007.40 1007.58 1007.86 1008.26 1008.74 1009.30 1009.87 1010.44 1010.96 1011.40 1011.76 1012.02 1012.21 1012.34 1012.44 1012.51
1009.03 1009.12 1009.14 1009.07 1008.85 1008.50 1008.02 1007.45 1006.82 1006.21 1005.65 1005.19 1004.89 1004.74 1004.77 1004.95 1005.26 1005.65 1006.08 1006.49 1006.85 1007.11 1007.27 1007.33 1007.31 1007.23 1007.14 1007.09 1007.11 1007.23 1007.48 1007.84 1008.29 1008.82 1009.39 1009.95 1010.48 1010.96 1011.36 1011.68 1011.94 1012.13 1012.28 1012.40
1009.63 1009.64 1009.57 1009.38 1009.03 1008.54 1007.91 1007.18 1006.42 1005.70 1005.07 1004.60 1004.32 1004.25 1004.39 1004.72 1005.18 1005.71 1006.26 1006.76 1007.17 1007.45 1007.60 1007.62 1007.54 1007.40 1007.25 1007.14 1007.10 1007.16 1007.35 1007.65 1008.04 1008.52 1009.04 1009.58 1010.10 1010.59 1011.02 1011.40 1011.71 1011.97 1012.17 1012.33
1009.87 1009.76 1009.58 1009.29 1008.84 1008.25 1007.53 1006.73 1005.92 1005.16 1004.54 1004.10 1003.88 1003.91 1004.16 1004.62 1005.21 1005.86 1006.51 1007.10 1007.56 1007.88 1008.04 1008.06 1007.97 1007.81 1007.63 1007.47 1007.38 1007.38 1007.50 1007.72 1008.04 1008.44 1008.89 1009.37 1009.86 1010.34 1010.78 1011.19 1011.55 1011.86 1012.12 1012.32
1009.68 1009.44 1009.15 1008.76 1008.24 1007.61 1006.87 1006.09 1005.31 1004.61 1004.06 1003.72 1003.61 1003.75 1004.12 1004.69 1005.39 1006.13 1006.87 1007.52 1008.04 1008.40 1008.60 1008.64 1008.56 1008.41 1008.22 1008.04 1007.92 1007.87 1007.91 1008.05 1008.27 1008.58 1008.94 1009.35 1009.78 1010.23 1010.67 1011.10 1011.49 1011.85 1012.15 1012.40
1009.11 1008.73 1008.32 1007.85 1007.31 1006.68 1006.00 1005.31 1004.65 1004.10 1003.70 1003.51 1003.55 1003.82 1004.31 1004.98 1005.75 1006.56 1007.34 1008.04 1008.59 1008.99 1009.22 1009.30 1009.25 1009.12 1008.95 1008.78 1008.63 1008.54 1008.52 1008.57 1008.70 1008.90 1009.17 1009.49 1009.86 1010.27 1010.69 1011.12 1011.54 1011.93 1012.27 1012.56
1008.32 1007.79 1007.27 1006.74 1006.20 1005.63 1005.06 1004.52 1004.06 1003.71 1003.52 1003.52 1003.74 1004.16 1004.76 1005.50 1006.32 1007.16 1007.95 1008.64 1009.20 1009.61 1009.86 1009.97 1009.96 1009.87 1009.73 1009.56 1009.41 1009.29 1009.22 1009.20 1009.24 1009.35 1009.52 1009.76 1010.06 1010.42 1010.82 1011.24 1011.68 1012.10 1012.48 1012.80
1007.52 1006.85 1006.23 1005.66 1005.13 1004.65 1004.22 1003.88 1003.64 1003.53 1003.58 1003.80 1004.20 1004.76 1005.45 1006.23 1007.06 1007.88 1008.64 1009.29 1009.82 1010.21 1010.46 1010.58 1010.60 1010.54 1010.43 1010.29 1010.14 1010.01 1009.90 1009.82 1009.80 1009.83 1009.92 1010.08 1010.32 1010.63 1011.01 1011.43 1011.88 1012.32 1012.74 1013.11
1006.94 1006.13 1005.42 1004.81 1004.32 1003.93 1003.66 1003.52 1003.51 1003.64 1003.92 1004.34 1004.90 1005.57 1006.31 1007.11 1007.90 1008.66 1009.34 1009.91 1010.38 1010.71 1010.94 1011.05 1011.08 1011.05 1010.97 1010.86 1010.73 1010.59 1010.47 1010.36 1010.29 1010.26 1010.29 1010.40 1010.58 1010.86 1011.22 1011.63 1012.09 1012.56 1013.01 1013.42
1006.73 1005.82 1005.03 1004.40 1003.93 1003.62 1003.49 1003.52 1003.70 1004.04 1004.51 1005.09 1005.76 1006.49 1007.25 1008.01 1008.73 1009.38 1009.95 1010.42 1010.78 1011.05 1011.22 1011.31 1011.35 1011.34 1011.29 1011.21 1011.11 1010.99 1010.87 1010.75 1010.65 1010.59 1010.58 1010.64 1010.79 1011.04 1011.38 1011.79 1012.26 1012.75 1013.23 1013.66
Thickness
5868 5855 5850 5864 5876 5872 5870 5865 5862 5873 5888 5877 5867 5863 5866 5870 5865 5856 5850 5845 5838 5834 5835 5833 5828 5824 5817 5811 5805 5800 5794 5791 5786 5781 5776 5772 5769 5770 5769 5769 5767 5766 5764 5763
5851 5847 5868 5880 5881 5872 5867 5859 5862 5876 5887 5876 5868 5866 5874 5873 5868 5864 5856 5849 5844 5839 5836 5833 5830 5826 5820 5813 5808 5803 5798 5794 5790 5785 5781 5777 5774 5772 5772 5771 5769 5767 5765 5763
5840 5861 5879 5871 5866 5861 5862 5860 5863 5866 5877 5878 5865 5851 5861 5871 5876 5871 5867 5861 5855 5847 5839 5835 5831 5828 5824 5817 5812 5808 5802 5798 5793 5790 5785 5781 5776 5773 5770 5769 5768 5767 5766 5764
5851 5869 5870 5863 5860 5860 5852 5875 5872 5867 5858 5852 5859 5829 5848 5859 5864 5866 5866 5863 5860 5856 5848 5841 5835 5831 5827 5823 5819 5814 5807 5802 5797 5792 5787 5780 5774 5770 5770 5770 5769 5768 5767 5766
5846 5861 5860 5853 5861 5866 5863 5879 5873 5866 5856 5848 5857 5842 5841 5859 5852 5860 5866 5868 5866 5862 5855 5847 5842 5837 5834 5830 5824 5818 5811 5804 5800 5795 5790 5783 5778 5776 5774 5773 5770 5768 5767 5766
5852 5871 5871 5865 5873 5873 5873 5867 5863 5860 5852 5827 5849 5844 5834 5853 5852 5858 5869 5873 5871 5867 5861 5854 5850 5844 5838 5835 5829 5822 5813 5806 5802 5797 5792 5787 5781 5777 5774 5771 5768 5768 5767 5767
5831 5850 5868 5873 5857 5864 5861 5839 5820 5815 5816 5821 5856 5850 5848 5870 5878 5876 5875 5875 5874 5870 5864 5856 5849 5844 5839 5835 5830 5824 5815 5807 5803 5798 5793 5790 5785 5780 5776 5772 5770 5768 5767 5766
5814 5821 5852 5862 5854 5848 5851 5844 5815 5801 5806 5820 5840 5839 5860 5886 5889 5890 5886 5882 5877 5871 5867 5859 5853 5847 5841 5836 5832 5826 5817 5810 5805 5800 5795 5792 5787 5783 5779 5776 5773 5771 5769 5768
5822 5826 5863 5868 5870 5860 5844 5844 5857 5839 5833 5825 5830 5848 5866 5884 5882 5882 5882 5877 5873 5871 5869 5862 5856 5851 5844 5838 5834 5829 5820 5813 5808 5803 5798 5793 5789 5785 5781 5779 5776 5773 5771 5770
5833 5821 5849 5865 5865 5862 5858 5855 5847 5832 5813 5807 5828 5837 5844 5859 5866 5872 5874 5873 5872 5869 5865 5863 5859 5854 5848 5843 5837 5832 5824 5817 5811 5807 5801 5796 5791 5787 5783 5780 5776 5773 5771 5769
5834 5817 5830 5844 5838 5836 5842 5840 5838 5836 5833 5813 5808 5826 5865 5861 5868 5869 5872 5873 5870 5868 5864 5861 5856 5855 5851 5846 5839 5832 5825 5818 5813 5808 5803 5799 5793 5789 5785 5780 5777 5774 5771 5768
5828 5819 5810 5829 5852 5860 5850 5843 5838 5816 5814 5823 5817 5828 5874 5875 5876 5875 5874 5874 5872 5870 5867 5863 5854 5852 5850 5845 5839 5833 5827 5821 5815 5811 5805 5799 5795 5790 5786 5782 5779 5776 5772 5769
5816 5804 5788 5798 5822 5841 5839 5844 5844 5839 5828 5818 5813 5827 5874 5875 5875 5875 5873 5871 5867 5866 5863 5860 5853 5851 5848 5844 5839 5834 5829 5824 5819 5813 5806 5800 5795 5790 5786 5783 5779 5775 5772 5768
5809 5794 5787 5785 5806 5825 5825 5832 5840 5834 5820 5817 5824 5832 5852 5857 5859 5864 5866 5866 5865 5863 5859 5855 5850 5849 5847 5843 5839 5835 5830 5827 5821 5814 5806 5799 5795 5791 5787 5783 5779 5775 5771 5767
5796 5781 5788 5801 5819 5827 5828 5829 5833 5830 5829 5824 5833 5839 5847 5853 5856 5858 5859 5859 5857 5855 5854 5851 5848 5845 5843 5840 5837 5834 5830 5826 5822 5814 5806 5800 5796 5791 5787 5782 5778 5774 5770 5767
5782 5771 5777 5782 5803 5813 5815 5825 5829 5829 5833 5832 5834 5837 5859 5860 5855 5852 5850 5850 5848 5848 5848 5848 5846 5843 5840 5837 5835 5831 5828 5824 5819 5812 5806 5801 5795 5790 5784 5780 5775 5771 5768 5763
5763 5757 5754 5760 5785 5792 5790 5814 5824 5827 5835 5834 5827 5837 5852 5847 5844 5843 5842 5841 5842 5843 5843 5841 5841 5839 5837 5836 5834 5828 5825 5822 5815 5808 5804 5799 5793 5787 5782 5778 5772 5767 5763 5759
5746 5744 5745 5751 5759 5748 5792 5830 5832 5827 5832 5840 5839 5841 5841 5840 5841 5841 5841 5837 5837 5838 5837 5837 5837 5835 5835 5834 5832 5828 5823 5817 5810 5805 5800 5795 5789 5784 5779 5773 5768 5764 5760 5756
5749 5737 5733 5738 5740 5756 5790 5814 5821 5815 5814 5833 5830 5831 5832 5837 5833 5826 5833 5834 5832 5833 5833 5833 5833 5832 5828 5826 5826 5822 5816 5810 5804 5798 5794 5790 5786 5779 5774 5768 5763 5760 5756 5751
5742 5738 5727 5728 5726 5736 5774 5808 5824 5813 5794 5819 5822 5819 5820 5821 5805 5806 5822 5825 5825 5825 5825 5826 5826 5824 5820 5819 5819 5812 5806 5801 5795 5792 5788 5784 5780 5775 5769 5764 5759 5756 5751 5746
5714 5717 5716 5717 5721 5746 5779 5800 5803 5773 5776 5806 5811 5811 5810 5804 5802 5806 5813 5813 5814 5813 5815 5817 5816 5812 5810 5810 5807 5801 5796 5791 5789 5786 5781 5777 5773 5769 5765 5759 5754 5749 5744 5740
5707 5708 5709 5714 5713 5731 5770 5778 5767 5767 5788 5795 5797 5797 5796 5796 5799 5799 5800 5801 5802 5802 5803 5804 5802 5800 5799 5799 5794 5788 5784 5784 5782 5778 5771 5766 5764 5762 5758 5752 5746 5742 5737 5731
5706 5712 5717 5718 5721 5737 5753 5757 5765 5772 5773 5779 5783 5784 5785 5783 5784 5784 5786 5787 5788 5790 5791 5792 5790 5786 5785 5785 5782 5775 5774 5774 5771 5766 5761 5757 5754 5750 5747 5742 5738 5733 5728 5723
5700 5712 5709 5709 5718 5729 5738 5744 5751 5757 5760 5767 5772 5773 5772 5769 5771 5772 5773 5775 5775 5775 5776 5777 5775 5772 5770 5770 5768 5765 5763 5761 5758 5754 5749 5746 5742 5738 5734 5731 5728 5723 5717 5713
5682 5690 5694 5694 5705 5713 5721 5728 5733 5740 5746 5750 5755 5759 5759 5758 5757 5758 5757 5758 5760 5761 5762 5762 5760 5757 5756 5755 5754 5753 5751 5749 5744 5741 5738 5735 5732 5728 5723 5717 5711 5709 5703 5699
5672 5674 5676 5680 5692 5697 5704 5715 5720 5723 5727 5732 5737 5740 5745 5745 5743 5744 5743 5744 5746 5747 5748 5747 5746 5745 5744 5743 5741 5740 5739 5737 5733 5729 5727 5725 5722 5718 5714 5706 5698 5691 5689 5685